Broomfield, CO

2:31 AM MST on December 14, 2017 (GMT -0700)
Jeffco

Weather History for KBJC - January, 2013

Change the Weather History Date:

Thursday, January 3, 2013

  Actual Average Record
Temperature  
Mean Temperature 26 °F -  
Max Temperature 39 °F 45 °F 62 °F (1989)
Min Temperature 12 °F 24 °F 5 °F (1999)
Degree Days  
Heating Degree Days 40    
Moisture  
Dew Point -4 °F    
Average Humidity 33    
Maximum Humidity 53    
Minimum Humidity 10    
Precipitation  
Precipitation 0.00 in - - ()
Sea Level Pressure  
Sea Level Pressure 30.22 in    
Wind  
Wind Speed 2 mph (SSW)    
Max Wind Speed 7 mph    
Max Gust Speed -    
Visibility 11 miles    
Events      
Averages and records for this station are not official NWS values.
T = Trace of Precipitation, MM = Missing Value Source: NWS Daily Summary

Daily Weather History Graph

Daily Weather History Graph

Search for Another Location

Airport or City:

Trip Planner

Search our weather history database for the weather conditions in past years. The results will help you decide how hot, cold, wet, or windy it might be!

Date:

Astronomy

Jan. 03, 2013 Rise Set
Actual Time 7:22 AM MST 4:48 PM MST
Civil Twilight 6:52 AM MST 5:18 PM MST
Nautical Twilight 6:18 AM MST 5:52 PM MST
Astronomical Twilight 5:45 AM MST 6:25 PM MST
Moon 11:25 PM MST (1/3) 10:35 AM MST (1/3)
Length of Visible Light 10h 26m
Length of Day
9h 26m
Waning Gibbous, 65% of the Moon is Illuminated
Jan 3
Waning Gibbous
Jan 4
Last Quarter
Jan 11
New
Jan 18
First Quarter
Jan 26
Full

Hourly Weather History & Observations

Time (MST) Temp. Windchill Dew Point Humidity Pressure Visibility Wind Dir Wind Speed Gust Speed Precip Events Conditions
12:16 AM 21.2 °F - 3.2 °F 46% 30.25 in 10.0 mi Calm Calm - N/A   Overcast
12:36 AM 21.2 °F - 1.4 °F 42% 30.25 in 10.0 mi Calm Calm - N/A   Overcast
12:56 AM 21.2 °F - 1.4 °F 42% 30.25 in 10.0 mi Calm Calm - N/A   Overcast
1:15 AM 21.2 °F - 3.2 °F 46% 30.25 in 10.0 mi Calm Calm - N/A   Overcast
1:35 AM 21.2 °F - 3.2 °F 46% 30.25 in 10.0 mi Calm Calm - N/A   Overcast
1:55 AM 21.2 °F 14.9 °F 3.2 °F 46% 30.26 in 10.0 mi WSW 4.6 mph - N/A   Mostly Cloudy
2:16 AM 21.2 °F 14.9 °F 1.4 °F 42% 30.26 in 10.0 mi West 4.6 mph - N/A   Mostly Cloudy
2:35 AM 21.2 °F - -0.4 °F 39% 30.26 in 10.0 mi Calm Calm - N/A   Scattered Clouds
2:55 AM 19.4 °F - 1.4 °F 46% 30.26 in 10.0 mi Calm Calm - N/A   Clear
3:16 AM 19.4 °F - -2.2 °F 39% 30.26 in 10.0 mi Calm Calm - N/A   Clear
3:35 AM 17.6 °F 12.3 °F -0.4 °F 45% 30.25 in 10.0 mi West 3.5 mph - N/A   Clear
3:56 AM 15.8 °F - -0.4 °F 49% 30.25 in 10.0 mi Calm Calm - N/A   Clear
4:16 AM 17.6 °F 12.3 °F -2.2 °F 42% 30.25 in 10.0 mi SW 3.5 mph - N/A   Clear
4:36 AM 17.6 °F - -2.2 °F 42% 30.25 in 10.0 mi Calm Calm - N/A   Clear
5:45 AM 15.8 °F - -2.2 °F 45% 30.23 in 30.0 mi Calm Calm - N/A   Partly Cloudy
6:46 AM 15.8 °F 10.2 °F -4.0 °F 41% 30.23 in 70.0 mi WSW 3.5 mph - N/A   Clear
7:48 AM 12.2 °F - -2.2 °F 53% 30.23 in 70.0 mi Calm Calm - N/A   Clear
8:47 AM 17.6 °F - -0.4 °F 45% 30.24 in 70.0 mi Calm Calm - N/A   Clear
9:52 AM 26.6 °F 19.1 °F -2.2 °F 29% 30.25 in 70.0 mi SSW 6.9 mph - N/A   Clear
10:48 AM 30.2 °F 24.3 °F -2.2 °F 25% 30.24 in 50.0 mi SSE 5.8 mph - N/A   Clear
11:49 AM 35.6 °F 30.7 °F -9.4 °F 14% 30.22 in 50.0 mi SSE 5.8 mph - N/A   Clear
12:53 PM 37.4 °F 33.8 °F -11.2 °F 12% 30.18 in 50.0 mi Variable 4.6 mph - N/A   Partly Cloudy
1:53 PM 37.4 °F 32.1 °F -13.0 °F 11% 30.16 in 70.0 mi SE 6.9 mph - N/A   Clear
2:53 PM 39.2 °F 35.0 °F -14.8 °F 10% 30.16 in 70.0 mi ESE 5.8 mph - N/A   Clear
3:47 PM 37.4 °F 34.9 °F -14.8 °F 10% 30.16 in 70.0 mi ESE 3.5 mph - N/A   Clear
4:47 PM 35.6 °F - -14.8 °F 11% 30.17 in 70.0 mi Calm Calm - N/A   Clear
5:47 PM 30.2 °F - -7.6 °F 19% 30.19 in 50.0 mi Calm Calm - N/A   Clear
6:45 PM 24.8 °F 20.5 °F -5.8 °F 26% 30.19 in 50.0 mi Variable 3.5 mph - N/A   Clear
7:55 PM 26.6 °F 21.2 °F -5.8 °F 24% 30.18 in 50.0 mi WSW 4.6 mph - N/A   Clear
8:50 PM 26.6 °F 20.0 °F -5.8 °F 24% 30.17 in 20.0 mi SW 5.8 mph - N/A   Clear
9:50 PM 28.4 °F - -7.6 °F 21% 30.17 in 20.0 mi Calm Calm - N/A   Clear
10:16 PM 23.0 °F 17.0 °F -0.4 °F 36% 30.17 in 10.0 mi SW 4.6 mph - N/A   Clear
10:36 PM 24.8 °F - -2.2 °F 31% 30.17 in 10.0 mi Calm Calm - N/A   Clear
10:56 PM 26.6 °F - -4.0 °F 26% 30.18 in 10.0 mi Calm Calm - N/A   Clear
11:16 PM 26.6 °F - -4.0 °F 26% 30.18 in 10.0 mi Calm Calm - N/A   Clear
11:36 PM 26.6 °F - -4.0 °F 26% 30.18 in 10.0 mi Calm Calm - N/A   Clear
11:56 PM 26.6 °F - -4.0 °F 26% 30.17 in 10.0 mi Calm Calm - N/A   Clear